Starlink 30951

operational
NORAD ID: 58439 Int'l Des: 2023-183 Owner: SPXS Country: US Constellation: starlink
LEOCIRCULAR

关于 Starlink 30951

正在加载描述...

实时位置

正在加载3D地球...

即将过境

高度历史

Altitude vs Time

uPlot chart will show altitude changes over time

两行轨道根数

1 58439U 23183C 25352.72044805 .00002940 00000-0 23265-3 0 9999
2 58439 43.0025 123.3489 0001278 269.1605 90.9090 15.02528145114536
Epoch: Dec 18, 2025 • Age: 25 hours

当前状态

高度 558.5 km
速度 7.58 km/s
星下点 12.47°N, 73.54°W
发射日期 Nov 28, 2023
运行时间 2 years
类型 internet

技术详情

分类 Payload
质量 730.00 kg
干质量 700.00 kg
总质量 730.00 kg
长度 0.30 m
直径 4.10 m
跨度 29.00 m
形状 Box + pan
制造商 SPXS
平台类型 Starlink V2M
阶段状态 In Orbit
所有者/国家 SPXS/US

大型星座

Loading constellations...